Location: 81360 Arifat, France
(43.7204°N, 2.3408°E)
Time: 02:52:04
(UTC+01:00)

ACS3 Solar Sail - Pass Details

Date: 16 October 2025
Orbit: 909 x 993 km, 97.3° (Epoch: 13 November)

Event Time Altitude Azimuth Distance (km) Brightness Sun altitude
Rises 07:08:54 0° 358° (N) 3,550 4.7 -11.1°
Reaches altitude 10° 07:11:57 10° 343° (NNW) 2,606 3.9 -10.6°
Maximum altitude 07:15:58 20° 298° (WNW) 1,996 2.9 -9.8°
Drops below altitude 10° 07:20:00 10° 254° (WSW) 2,614 3.5 -9.1°
Enters shadow 07:20:35 - 250° (WSW) 2,777 3.6 -9.0°
